SAS104 LOWW-EDDM

Flight info

Callsign SAS104
Flight time N/A
Altitude 28000
Route SOVIL DCT SITNI DCT BAGSI DCT MATIG DCT AMADI Q113 NAPSA
Aircraft B77W/H-SDE1E2E3FGHIJ2J3J4J5M1RWXY/LB1D1

Departure

Time 2026-05-07 16:24
Airport Vienna International Airport (LOWW)

Arrival

Time N/A
Airport Munich Airport (EDDM)
Time Latitude Longitude Altitude Speed Heading
2026-05-07 16:03 48.11859 16.55986 614 ft 0 kts 127°
2026-05-07 16:14 48.11862 16.55980 632 ft 3 kts 129°
2026-05-07 16:14 48.11878 16.55958 629 ft 3 kts 140°
2026-05-07 16:14 48.11894 16.55938 628 ft 3 kts 140°
2026-05-07 16:15 48.11912 16.55921 628 ft 3 kts 162°
2026-05-07 16:15 48.11927 16.55919 628 ft 0 kts 207°
2026-05-07 16:18 48.11910 16.55906 628 ft 8 kts 207°
2026-05-07 16:19 48.11820 16.55841 623 ft 17 kts 205°
2026-05-07 16:19 48.11708 16.55790 618 ft 17 kts 164°
2026-05-07 16:19 48.11645 16.55939 626 ft 17 kts 116°
2026-05-07 16:19 48.11590 16.56101 627 ft 17 kts 116°
2026-05-07 16:20 48.11537 16.56264 625 ft 17 kts 115°
2026-05-07 16:20 48.11485 16.56428 625 ft 17 kts 116°
2026-05-07 16:20 48.11431 16.56593 626 ft 19 kts 116°
2026-05-07 16:20 48.11361 16.56809 621 ft 25 kts 116°
2026-05-07 16:21 48.11286 16.57038 620 ft 25 kts 116°
2026-05-07 16:21 48.11212 16.57265 625 ft 25 kts 116°
2026-05-07 16:21 48.11137 16.57493 624 ft 23 kts 116°
2026-05-07 16:21 48.11095 16.57621 625 ft 9 kts 116°
2026-05-07 16:22 48.11050 16.57651 623 ft 6 kts 195°
2026-05-07 16:22 48.11008 16.57622 617 ft 7 kts 205°
2026-05-07 16:22 48.10961 16.57588 624 ft 11 kts 206°
2026-05-07 16:22 48.10929 16.57494 619 ft 12 kts 282°
2026-05-07 16:23 48.10965 16.57377 626 ft 18 kts 295°
2026-05-07 16:23 48.11070 16.57045 628 ft 62 kts 296°
2026-05-07 16:23 48.11374 16.56121 629 ft 133 kts 296°
2026-05-07 16:23 48.11859 16.54604 649 ft 183 kts 293°
2026-05-07 16:24 48.12422 16.52822 1157 ft 191 kts 293°
2026-05-07 16:24 48.12704 16.50901 1705 ft 197 kts 257°
2026-05-07 16:24 48.12025 16.49168 2178 ft 194 kts 224°
2026-05-07 16:24 48.11087 16.47741 2868 ft 191 kts 226°
2026-05-07 16:25 48.10192 16.46273 3480 ft 192 kts 229°
2026-05-07 16:25 48.09323 16.44710 3938 ft 202 kts 232°
2026-05-07 16:25 48.08421 16.42934 4165 ft 226 kts 233°
2026-05-07 16:25 48.07425 16.40929 4359 ft 253 kts 233°
2026-05-07 16:26 48.06356 16.38770 4977 ft 262 kts 234°
2026-05-07 16:26 48.05325 16.36689 5662 ft 269 kts 234°
2026-05-07 16:26 48.04199 16.34414 6398 ft 274 kts 236°
2026-05-07 16:26 48.03534 16.32785 6829 ft 272 kts 250°
2026-05-07 16:27 48.03291 16.29084 7691 ft 273 kts 273°
2026-05-07 16:27 48.03354 16.26231 8426 ft 276 kts 272°
2026-05-07 16:27 48.03407 16.23358 9254 ft 277 kts 272°
2026-05-07 16:27 48.03460 16.20456 9989 ft 281 kts 272°
2026-05-07 16:28 48.03514 16.17496 10508 ft 294 kts 271°
2026-05-07 16:28 48.03571 16.14313 10697 ft 319 kts 271°
2026-05-07 16:28 48.03630 16.10865 10898 ft 344 kts 271°
2026-05-07 16:28 48.03692 16.07184 11306 ft 362 kts 271°
2026-05-07 16:29 48.03753 16.03366 12045 ft 371 kts 271°
2026-05-07 16:29 48.03815 15.99482 12984 ft 376 kts 271°
2026-05-07 16:29 48.03875 15.95552 13962 ft 380 kts 270°
2026-05-07 16:29 48.03934 15.91578 14859 ft 384 kts 270°
2026-05-07 16:30 48.03990 15.87674 15968 ft 380 kts 270°
2026-05-07 16:30 48.04046 15.83700 16827 ft 386 kts 270°
2026-05-07 16:30 48.04102 15.79643 17607 ft 393 kts 269°
2026-05-07 16:30 48.04157 15.75536 18418 ft 398 kts 269°
2026-05-07 16:31 48.04208 15.71375 19133 ft 403 kts 269°
2026-05-07 16:31 48.04263 15.67163 19828 ft 408 kts 268°
2026-05-07 16:31 48.04317 15.62895 20491 ft 413 kts 268°
2026-05-07 16:31 48.04369 15.58576 21161 ft 419 kts 268°
2026-05-07 16:32 48.04420 15.54195 21805 ft 424 kts 268°
2026-05-07 16:32 48.04470 15.49763 22467 ft 429 kts 267°
2026-05-07 16:32 48.04519 15.45298 23262 ft 429 kts 268°
2026-05-07 16:32 48.04567 15.40837 23994 ft 430 kts 267°
2026-05-07 16:33 48.04614 15.36345 24548 ft 435 kts 267°
2026-05-07 16:33 48.04678 15.31797 25008 ft 441 kts 268°
2026-05-07 16:33 48.04755 15.27197 25538 ft 445 kts 268°
2026-05-07 16:33 48.04835 15.22562 26127 ft 447 kts 267°
2026-05-07 16:34 48.04913 15.17906 26687 ft 449 kts 267°
2026-05-07 16:34 48.04988 15.13226 27168 ft 453 kts 267°
2026-05-07 16:34 48.05011 15.11692 27321 ft 454 kts 266°
2026-05-07 16:34 48.05082 15.06958 27802 ft 458 kts 266°
2026-05-07 16:35 48.05148 15.02239 28053 ft 464 kts 268°
2026-05-07 16:35 48.05282 14.92432 28002 ft 479 kts 268°
2026-05-07 16:36 48.05396 14.83777 28005 ft 489 kts 268°
2026-05-07 16:36 48.05452 14.78681 28000 ft 492 kts 268°
2026-05-07 16:36 48.05498 14.73565 27995 ft 491 kts 268°
2026-05-07 16:36 48.05539 14.68467 27991 ft 491 kts 268°
2026-05-07 16:37 48.05578 14.63369 27998 ft 490 kts 268°
2026-05-07 16:37 48.05614 14.58282 27812 ft 491 kts 268°
2026-05-07 16:37 48.05639 14.54821 27376 ft 492 kts 268°
2026-05-07 16:37 48.05676 14.49734 26704 ft 486 kts 268°
2026-05-07 16:38 48.05711 14.44797 26048 ft 478 kts 268°
2026-05-07 16:38 48.05743 14.39815 25384 ft 469 kts 268°
2026-05-07 16:38 48.05770 14.35035 24772 ft 463 kts 268°
2026-05-07 16:38 48.05796 14.30259 24155 ft 457 kts 269°
2026-05-07 16:39 48.05818 14.25537 23525 ft 451 kts 269°
2026-05-07 16:39 48.05836 14.20879 22810 ft 446 kts 269°
2026-05-07 16:39 48.05852 14.16267 22111 ft 441 kts 269°
2026-05-07 16:39 48.05865 14.11945 21462 ft 436 kts 269°
2026-05-07 16:40 48.05878 14.07423 20790 ft 432 kts 269°
2026-05-07 16:40 48.05889 14.02956 20117 ft 427 kts 269°
2026-05-07 16:40 48.05898 13.98532 19479 ft 424 kts 269°
2026-05-07 16:40 48.05906 13.94144 18858 ft 420 kts 269°
2026-05-07 16:41 48.05912 13.89799 18226 ft 416 kts 269°
2026-05-07 16:41 48.05916 13.85498 17576 ft 412 kts 269°
2026-05-07 16:41 48.05919 13.81237 16986 ft 407 kts 269°
2026-05-07 16:41 48.05921 13.77034 16409 ft 402 kts 269°
2026-05-07 16:42 48.05920 13.72887 15847 ft 397 kts 269°
2026-05-07 16:42 48.05918 13.68845 15382 ft 390 kts 269°
2026-05-07 16:42 48.05922 13.64831 14866 ft 383 kts 270°
2026-05-07 16:42 48.06219 13.60865 14188 ft 385 kts 281°
2026-05-07 16:43 48.07018 13.57053 13574 ft 384 kts 290°
2026-05-07 16:43 48.08052 13.53388 13019 ft 380 kts 292°
2026-05-07 16:43 48.09131 13.49794 12471 ft 377 kts 292°
2026-05-07 16:43 48.10210 13.46242 11902 ft 373 kts 292°
2026-05-07 16:44 48.11283 13.42725 11330 ft 371 kts 293°
2026-05-07 16:44 48.12353 13.39227 10785 ft 368 kts 293°
2026-05-07 16:44 48.13417 13.35755 10278 ft 364 kts 293°
2026-05-07 16:44 48.14473 13.32313 10109 ft 367 kts 293°
2026-05-07 16:45 48.15537 13.28845 10021 ft 364 kts 293°
2026-05-07 16:45 48.16585 13.25425 10017 ft 360 kts 293°
2026-05-07 16:45 48.17632 13.22013 10024 ft 361 kts 293°
2026-05-07 16:45 48.18681 13.18588 10020 ft 362 kts 293°
2026-05-07 16:46 48.19731 13.15157 10015 ft 362 kts 293°
2026-05-07 16:46 48.20780 13.11731 10016 ft 362 kts 293°
2026-05-07 16:46 48.21830 13.08299 10015 ft 362 kts 293°
2026-05-07 16:46 48.22878 13.04871 10017 ft 362 kts 293°
2026-05-07 16:47 48.23908 13.01501 10004 ft 348 kts 293°
2026-05-07 16:47 48.24899 12.98265 9995 ft 332 kts 293°
2026-05-07 16:47 48.25838 12.95199 9998 ft 316 kts 293°
2026-05-07 16:47 48.26734 12.92276 9997 ft 301 kts 293°
2026-05-07 16:48 48.27589 12.89484 9996 ft 287 kts 293°
2026-05-07 16:48 48.28401 12.86828 10001 ft 274 kts 292°
2026-05-07 16:48 48.29182 12.84271 9982 ft 271 kts 292°
2026-05-07 16:48 48.29967 12.81701 9722 ft 270 kts 292°
2026-05-07 16:49 48.30746 12.79142 9363 ft 269 kts 292°
2026-05-07 16:49 48.31526 12.76579 9021 ft 269 kts 293°
2026-05-07 16:49 48.32301 12.74036 8713 ft 267 kts 293°
2026-05-07 16:49 48.33073 12.71497 8404 ft 267 kts 293°
2026-05-07 16:50 48.33846 12.68957 8100 ft 267 kts 293°
2026-05-07 16:50 48.34619 12.66413 7804 ft 267 kts 293°
2026-05-07 16:50 48.35390 12.63875 7493 ft 266 kts 293°
2026-05-07 16:50 48.36160 12.61340 7200 ft 266 kts 293°
2026-05-07 16:51 48.36926 12.58816 6904 ft 265 kts 293°
2026-05-07 16:51 48.37693 12.56289 6612 ft 265 kts 293°
2026-05-07 16:51 48.38457 12.53777 6313 ft 264 kts 293°
2026-05-07 16:51 48.39193 12.51258 5990 ft 259 kts 287°
2026-05-07 16:52 48.39423 12.48647 5657 ft 253 kts 269°
2026-05-07 16:52 48.39389 12.45970 5369 ft 253 kts 270°
2026-05-07 16:52 48.39372 12.43303 5090 ft 256 kts 270°
2026-05-07 16:52 48.39356 12.40659 5049 ft 251 kts 270°
2026-05-07 16:53 48.39341 12.38039 4994 ft 246 kts 270°
2026-05-07 16:53 48.39325 12.35556 4969 ft 233 kts 270°
2026-05-07 16:53 48.39283 12.33160 4984 ft 229 kts 267°
2026-05-07 16:53 48.39169 12.30764 4987 ft 227 kts 266°
2026-05-07 16:54 48.39049 12.28449 4963 ft 217 kts 267°
2026-05-07 16:54 48.38932 12.26228 4981 ft 209 kts 265°
2026-05-07 16:54 48.38632 12.24098 4949 ft 209 kts 253°
2026-05-07 16:54 48.38071 12.22086 4925 ft 209 kts 245°
2026-05-07 16:55 48.37514 12.20087 4889 ft 208 kts 257°
2026-05-07 16:55 48.37225 12.17951 4898 ft 209 kts 266°
2026-05-07 16:55 48.37117 12.15763 4983 ft 210 kts 264°
2026-05-07 16:55 48.36641 12.13708 5055 ft 212 kts 237°
2026-05-07 16:56 48.35584 12.12061 5154 ft 231 kts 219°
2026-05-07 16:56 48.34202 12.10761 5991 ft 238 kts 208°
2026-05-07 16:56 48.30878 12.09091 7012 ft 257 kts 194°
2026-05-07 16:57 48.29103 12.08617 7004 ft 262 kts 193°
2026-05-07 16:57 48.27281 12.08165 7031 ft 267 kts 191°
2026-05-07 16:57 48.25424 12.07958 6994 ft 269 kts 175°
2026-05-07 16:57 48.23649 12.08913 7023 ft 277 kts 147°
2026-05-07 16:58 48.22262 12.10936 7022 ft 280 kts 131°
2026-05-07 16:58 48.21058 12.13254 6993 ft 284 kts 129°
2026-05-07 16:58 48.19867 12.15636 7016 ft 286 kts 128°
2026-05-07 16:58 48.18681 12.18018 6985 ft 285 kts 128°
2026-05-07 16:59 48.17448 12.20222 6967 ft 274 kts 144°
2026-05-07 16:59 48.15775 12.21535 7011 ft 267 kts 156°
2026-05-07 16:59 48.14284 12.23235 7002 ft 278 kts 129°
2026-05-07 16:59 48.13444 12.25863 6985 ft 284 kts 101°
2026-05-07 17:00 48.13328 12.28760 7005 ft 285 kts 89°
2026-05-07 17:00 48.13410 12.31744 7010 ft 287 kts 87°
2026-05-07 17:00 48.13522 12.34741 6997 ft 288 kts 86°
2026-05-07 17:00 48.13647 12.37715 6979 ft 283 kts 82°
2026-05-07 17:01 48.14246 12.40465 6993 ft 279 kts 56°
2026-05-07 17:01 48.15604 12.42497 7011 ft 277 kts 27°
2026-05-07 17:01 48.17399 12.43369 6956 ft 270 kts
2026-05-07 17:01 48.19248 12.43181 6728 ft 265 kts 348°
2026-05-07 17:02 48.21069 12.42724 6463 ft 265 kts 347°
2026-05-07 17:02 48.22879 12.42237 6235 ft 263 kts 347°
2026-05-07 17:02 48.24684 12.41748 5982 ft 263 kts 347°
2026-05-07 17:02 48.26482 12.41256 5764 ft 261 kts 346°
2026-05-07 17:03 48.28251 12.40769 5642 ft 255 kts 347°
2026-05-07 17:03 48.29967 12.40284 5550 ft 246 kts 343°
2026-05-07 17:03 48.31477 12.39220 5214 ft 240 kts 315°
2026-05-07 17:03 48.32427 12.37248 5090 ft 229 kts 298°
2026-05-07 17:04 48.33208 12.35138 5054 ft 233 kts 299°
2026-05-07 17:04 48.34020 12.32987 5015 ft 238 kts 298°
2026-05-07 17:04 48.34835 12.30828 5005 ft 236 kts 298°
2026-05-07 17:04 48.35633 12.28712 5001 ft 235 kts 298°
2026-05-07 17:05 48.36437 12.26573 4989 ft 235 kts 298°
2026-05-07 17:05 48.37209 12.24426 4971 ft 230 kts 290°
2026-05-07 17:05 48.37440 12.22058 5013 ft 233 kts 270°
2026-05-07 17:05 48.37403 12.19585 5000 ft 239 kts 267°
2026-05-07 17:06 48.37275 12.17085 5009 ft 238 kts 265°
2026-05-07 17:06 48.37099 12.14619 5009 ft 235 kts 264°
2026-05-07 17:06 48.36913 12.12185 5012 ft 233 kts 264°
2026-05-07 17:06 48.36726 12.09766 5002 ft 230 kts 264°
2026-05-07 17:07 48.36549 12.07466 4991 ft 217 kts 264°
2026-05-07 17:07 48.36376 12.05232 4767 ft 213 kts 264°
2026-05-07 17:07 48.36209 12.03043 4504 ft 210 kts 264°
2026-05-07 17:07 48.36042 12.00865 4236 ft 206 kts 265°
2026-05-07 17:08 48.35883 11.98788 3947 ft 190 kts 265°
2026-05-07 17:08 48.35738 11.96915 3671 ft 171 kts 265°
2026-05-07 17:08 48.35604 11.95162 3461 ft 166 kts 265°
2026-05-07 17:08 48.35474 11.93449 3261 ft 162 kts 265°
2026-05-07 17:09 48.35349 11.91821 3007 ft 150 kts 265°
2026-05-07 17:09 48.35231 11.90278 2849 ft 151 kts 265°
2026-05-07 17:09 48.35113 11.88730 2630 ft 148 kts 266°
2026-05-07 17:09 48.34995 11.87199 2416 ft 147 kts 265°
2026-05-07 17:10 48.34879 11.85702 2226 ft 143 kts 267°
2026-05-07 17:10 48.34766 11.84185 2026 ft 149 kts 268°
2026-05-07 17:10 48.34643 11.82658 1811 ft 147 kts 265°
2026-05-07 17:10 48.34526 11.81130 1623 ft 150 kts 264°
2026-05-07 17:11 48.34414 11.79585 1748 ft 147 kts 263°
2026-05-07 17:11 48.34112 11.78105 2542 ft 147 kts 244°
2026-05-07 17:11 48.33384 11.76985 3401 ft 159 kts 211°
2026-05-07 17:11 48.32268 11.76733 4341 ft 165 kts 179°
2026-05-07 17:12 48.31122 11.76812 5365 ft 176 kts 181°
2026-05-07 17:12 48.29843 11.76932 6207 ft 196 kts 180°
2026-05-07 17:12 48.28513 11.77075 6773 ft 193 kts 180°
2026-05-07 17:12 48.27083 11.77216 7069 ft 230 kts 180°
2026-05-07 17:13 48.25404 11.77355 7043 ft 247 kts 180°
2026-05-07 17:13 48.23694 11.77493 7032 ft 246 kts 180°
2026-05-07 17:13 48.21971 11.77632 7044 ft 250 kts 180°
2026-05-07 17:13 48.20235 11.77828 7043 ft 251 kts 171°
2026-05-07 17:14 48.18645 11.78945 7041 ft 260 kts 140°
2026-05-07 17:14 48.17581 11.81169 7053 ft 268 kts 110°
2026-05-07 17:14 48.17311 11.83914 7038 ft 269 kts 87°
2026-05-07 17:14 48.17454 11.86736 7051 ft 275 kts 84°
2026-05-07 17:15 48.17659 11.89587 7045 ft 275 kts 83°
2026-05-07 17:15 48.17870 11.92439 7041 ft 275 kts 83°
2026-05-07 17:15 48.18082 11.95248 7042 ft 275 kts 83°
2026-05-07 17:15 48.18300 11.98093 7032 ft 275 kts 83°
2026-05-07 17:16 48.18522 12.00975 7035 ft 275 kts 83°
2026-05-07 17:16 48.18794 12.03789 7025 ft 271 kts 72°
2026-05-07 17:16 48.19616 12.06258 6915 ft 267 kts 53°
2026-05-07 17:16 48.20698 12.08525 6681 ft 267 kts 52°
2026-05-07 17:17 48.21773 12.10782 6485 ft 264 kts 53°
2026-05-07 17:17 48.22835 12.13013 6316 ft 261 kts 53°
2026-05-07 17:17 48.23884 12.15217 6088 ft 259 kts 53°
2026-05-07 17:17 48.24931 12.17411 5851 ft 258 kts 53°
2026-05-07 17:18 48.25983 12.19579 5607 ft 253 kts 47°
2026-05-07 17:18 48.27361 12.21167 5208 ft 252 kts 18°
2026-05-07 17:18 48.29037 12.21490 5064 ft 237 kts 352°
2026-05-07 17:18 48.30675 12.21246 4885 ft 238 kts 351°
2026-05-07 17:19 48.32333 12.21007 4662 ft 240 kts 353°
2026-05-07 17:19 48.33968 12.20726 4439 ft 238 kts 344°
2026-05-07 17:19 48.35437 12.19595 4155 ft 236 kts 313°
2026-05-07 17:19 48.36287 12.17580 4076 ft 230 kts 293°
2026-05-07 17:20 48.36855 12.15333 4000 ft 233 kts 281°
2026-05-07 17:20 48.36907 12.12900 4013 ft 231 kts 268°
2026-05-07 17:20 48.36781 12.10560 3980 ft 217 kts 265°
2026-05-07 17:20 48.36626 12.08445 3985 ft 189 kts 265°
2026-05-07 17:21 48.36484 12.06609 3954 ft 166 kts 264°
2026-05-07 17:21 48.36357 12.04973 3993 ft 152 kts 265°
2026-05-07 17:21 48.36235 12.03380 3995 ft 153 kts 265°
2026-05-07 17:21 48.36116 12.01825 3985 ft 146 kts 265°
2026-05-07 17:22 48.36039 12.00824 3980 ft 144 kts 265°
2026-05-07 17:22 48.35926 11.99339 3984 ft 143 kts 265°
2026-05-07 17:22 48.35809 11.97827 3804 ft 144 kts 266°
2026-05-07 17:22 48.35696 11.96352 3601 ft 141 kts 266°
2026-05-07 17:23 48.35583 11.94878 3442 ft 143 kts 265°
2026-05-07 17:23 48.35471 11.93407 3248 ft 141 kts 267°
2026-05-07 17:23 48.35358 11.91928 3053 ft 144 kts 265°
2026-05-07 17:23 48.35244 11.90445 2857 ft 142 kts 266°
2026-05-07 17:24 48.35131 11.88969 2667 ft 143 kts 264°
2026-05-07 17:24 48.35015 11.87469 2468 ft 145 kts 265°
2026-05-07 17:24 48.34901 11.85963 2263 ft 145 kts 267°